This is the latest recevied weather packets stored in our database for station/object N8HKU-5. If no packets are shown the sender has not sent any weather packets the latest 1 day(s).
| Time | Temp. | Humidity | Pressure | Rain* | Wind** | Luminosity | Snow |
|---|---|---|---|---|---|---|---|
| 1778055154 | 8.33° C | 64% | 1006.2 hPa | 0 mm | - | - | - |
| 1778053354 | 8.33° C | 66% | 1006.1 hPa | 0 mm | - | - | - |
| 1778052154 | 7.78° C | 69% | 1006.3 hPa | 0 mm | - | - | - |
| 1778050955 | 7.78° C | 71% | 1006.1 hPa | 0 mm | - | - | - |
| 1778050354 | 7.78° C | 70% | 1006.3 hPa | 0 mm | - | - | - |
| 1778048554 | 7.78° C | 75% | 1006.7 hPa | 0 mm | - | - | - |
| 1778047954 | 7.78° C | 77% | 1006.7 hPa | 0 mm | - | - | - |
| 1778047354 | 7.78° C | 81% | 1006.7 hPa | 0 mm | - | - | - |
| 1778046754 | 7.78° C | 83% | 1006.8 hPa | 0 mm | - | - | - |
| 1778045554 | 7.78° C | 80% | 1006.6 hPa | 0 mm | - | - | - |
| 1778043754 | 8.33° C | 71% | 1006.7 hPa | 0 mm | - | - | - |
| 1778042554 | 8.33° C | 67% | 1006.7 hPa | 0 mm | - | - | - |
| 1778041954 | 8.33° C | 66% | 1006.7 hPa | 0 mm | - | - | - |
| 1778041354 | 8.33° C | 68% | 1006.7 hPa | 0 mm | - | - | - |
| 1778040754 | 8.33° C | 70% | 1006.7 hPa | 0 mm | - | - | - |
| 1778038953 | 7.78° C | 80% | 1006.2 hPa | 0 mm | - | - | - |
| 1778038354 | 7.78° C | 77% | 1006.1 hPa | 0 mm | - | - | - |
| 1778037754 | 7.78° C | 79% | 1006.2 hPa | 0 mm | - | - | - |
| 1778037154 | 7.78° C | 79% | 1006.5 hPa | 0 mm | - | - | - |
| 1778036553 | 7.78° C | 76% | 1006.5 hPa | 0 mm | - | - | - |
| 1778035954 | 7.78° C | 77% | 1006.6 hPa | 0 mm | - | - | - |
| 1778035354 | 8.33° C | 78% | 1006.6 hPa | 0 mm | - | - | - |
| 1778034753 | 8.33° C | 77% | 1006.7 hPa | 0 mm | - | - | - |
| 1778034154 | 8.33° C | 75% | 1006.4 hPa | 0 mm | - | - | - |
| 1778033553 | 8.33° C | 74% | 1006.4 hPa | 0 mm | - | - | - |
* Rain latest hour (hover to see other rain measurements)
** Current wind speed in m/s (hover to see current wind gust speed)